Sign-in with your pilot id or email, or register

ICAO: LYPG Name / Country: Podgorica / Montenegro
Latitude: 42.3594 Longitude: 19.2519
Total Arrivals:
Deprecated: Non-static method AirportData::getarrflights() should not be called statically, assuming $this from incompatible context in /var/www/customers/vh-7192/web/home/phpvms/core/templates/airport_info.tpl on line 18
5
Total Departures:
Deprecated: Non-static method AirportData::getdeptflights() should not be called statically, assuming $this from incompatible context in /var/www/customers/vh-7192/web/home/phpvms/core/templates/airport_info.tpl on line 21
2
Latest Arrival: MTA334 (LHBP-LYPG) Tibor Berces Latest Departure: MTA335 (LYPG-LHBP) Tibor Berces
Metar: LYPG 211230Z 16005KT 120V210 9999 FEW030 FEW040TCU 26/13 Q1018 TEMPO VRB12G25KT TSRA FEW030CB SCT040
More info

Charts for LYPG


NOTAM


Warning: file_get_contents(http://api.vateud.net/notams/LYPG.json): failed to open stream: HTTP request failed! HTTP/1.1 404 Not Found in /var/www/customers/vh-7192/web/home/phpvms/core/common/NOTAMSData.class.php on line 18

Warning: Invalid argument supplied for foreach() in /var/www/customers/vh-7192/web/home/phpvms/core/common/NOTAMSData.class.php on line 22

Podgorica